DW1920 Weather Reports


Display with metric or nautical units.
time (UTC)temp
F
wind
direction
speed
MPH
gust
MPH
rain 1hr
in
rain 24hr
in
rain mn
in
humidity
%
barometer
mb
20260906023003 62 33 8.0 11.0 0.00 0.00 0.00 81 1011.5
20260906022003 62 36 8.0 12.0 0.00 0.00 0.00 81 1011.5
20260906021045 62 36 6.0 11.0 0.00 0.00 0.00 82 1011.5
20260906020003 62 24 4.0 7.0 0.00 0.00 0.00 81 1011.5
20260906015003 63 14 5.0 10.0 0.00 0.00 0.00 81 1011.4
20260906014003 63 29 7.0 11.0 0.00 0.00 0.00 80 1011.4
20260906013003 63 32 9.0 15.0 0.00 0.00 0.00 79 1011.4
20260906012003 63 33 10.0 15.0 0.00 0.00 0.00 79 1011.4
20260906011003 64 34 9.0 16.0 0.00 0.00 0.00 77 1011.3
20260906010003 64 35 13.0 17.0 0.00 0.00 0.00 78 1011.3
20260906005003 63 35 6.0 9.0 0.00 0.00 0.00 80 1011.2
20260906004023 64 27 2.0 3.0 0.00 0.00 0.00 78 1011.3
20260906003003 64 27 2.0 4.0 0.00 0.00 0.00 77 1011.2
20260906002024 64 25 3.0 4.0 0.00 0.00 0.00 77 1011.0
20260906001003 64 26 3.0 5.0 0.00 0.00 0.00 78 1010.9
20260906000003 64 15 3.0 5.0 0.00 0.00 0.00 78 1010.9
20260905235045 64 11 3.0 4.0 0.00 0.00 0.00 79 1010.9
20260905234024 64 18 3.0 5.0 0.00 0.00 0.00 79 1010.8
20260905233003 64 18 3.0 5.0 0.00 0.00 0.00 80 1010.8
20260905232003 64 23 2.0 6.0 0.00 0.00 0.00 80 1010.7
20260905231002 63 25 4.0 9.0 0.00 0.00 0.00 80 1010.7
20260905230024 64 24 4.0 9.0 0.00 0.00 0.00 80 1010.7
20260905225003 64 26 6.0 11.0 0.00 0.00 0.00 78 1010.6
20260905224003 66 50 9.0 17.0 0.00 0.00 0.00 74 1010.6
20260905223003 67 22 10.0 16.0 0.00 0.00 0.00 66 1010.4
20260905222003 68 13 5.0 9.0 0.00 0.00 0.00 67 1010.3
20260905221002 69 7 6.0 9.0 0.00 0.00 0.00 66 1010.2
20260905215002 68 12 2.0 7.0 0.00 0.00 0.00 69 1009.9
20260905214003 68 18 6.0 9.0 0.00 0.00 0.00 68 1009.9
20260905213024 68 10 5.0 12.0 0.00 0.00 0.00 68 1009.7
20260905212003 68 16 8.0 13.0 0.00 0.00 0.00 67 1009.5
20260905211003 68 27 6.0 14.0 0.00 0.00 0.00 67 1009.6
20260905210002 69 22 6.0 14.0 0.00 0.00 0.00 66 1009.4
20260905205003 68 23 7.0 13.0 0.00 0.04 0.00 67 1009.4
20260905204003 68 22 5.0 14.0 0.00 0.04 0.00 69 1009.3
20260905203003 68 21 8.0 17.0 0.00 0.04 0.00 67 1009.3
20260905202003 69 23 10.0 20.0 0.00 0.04 0.00 64 1009.3
20260905201002 69 6 9.0 17.0 0.00 0.04 0.00 65 1009.1
20260905200003 69 32 7.0 14.0 0.00 0.04 0.00 66 1009.0
20260905195003 69 39 8.0 15.0 0.00 0.04 0.00 68 1009.0
20260905194003 68 24 9.0 15.0 0.00 0.04 0.00 67 1008.9
20260905193003 69 39 9.0 20.0 0.00 0.04 0.00 66 1008.9
20260905192003 69 16 10.0 18.0 0.00 0.04 0.00 64 1009.0
20260905191003 69 18 8.0 14.0 0.00 0.04 0.00 66 1009.0
20260905190003 68 17 8.0 21.0 0.00 0.04 0.00 67 1009.1
20260905185024 69 3 9.0 18.0 0.00 0.04 0.00 65 1009.1
20260905184003 71 23 3.0 15.0 0.00 0.04 0.00 63 1008.9
20260905183002 71 5 10.0 19.0 0.00 0.04 0.00 62 1008.8
20260905182004 70 13 10.0 21.0 0.00 0.04 0.00 62 1008.9
20260905181024 69 22 15.0 22.0 0.00 0.04 0.00 64 1008.9
20260905180024 70 23 13.0 21.0 0.00 0.04 0.00 63 1008.9
20260905175002 69 20 10.0 20.0 0.00 0.04 0.00 66 1008.9
20260905174004 69 15 13.0 24.0 0.00 0.04 0.00 65 1008.9
20260905173002 69 37 12.0 23.0 0.00 0.04 0.00 70 1009.0
20260905172003 69 33 14.0 19.0 0.00 0.04 0.00 67 1008.9
20260905171003 69 23 10.0 22.0 0.00 0.04 0.00 66 1009.0
20260905170003 69 22 12.0 21.0 0.00 0.04 0.00 68 1009.0
20260905165003 68 32 12.0 19.0 0.00 0.04 0.00 70 1009.1
20260905164002 68 26 13.0 25.0 0.00 0.04 0.00 69 1009.2
20260905163003 68 12 15.0 26.0 0.00 0.04 0.00 69 1009.1
20260905162003 67 22 14.0 22.0 0.00 0.04 0.00 71 1009.3
20260905161024 68 38 15.0 20.0 0.00 0.04 0.00 72 1009.1
20260905160003 68 37 13.0 20.0 0.00 0.04 0.00 73 1009.1
20260905155002 67 27 14.0 21.0 0.00 0.04 0.00 72 1009.2
20260905154003 67 46 12.0 17.0 0.00 0.04 0.00 74 1009.1
20260905153024 67 38 11.0 19.0 0.00 0.04 0.00 75 1009.2
20260905152002 67 34 12.0 20.0 0.00 0.04 0.00 75 1008.9
20260905151003 67 27 11.0 20.0 0.00 0.04 0.00 76 1009.0
20260905150002 67 29 13.0 23.0 0.00 0.04 0.00 78 1008.9
20260905145024 66 38 17.0 23.0 0.00 0.04 0.00 79 1008.8
20260905144003 67 43 13.0 19.0 0.00 0.04 0.00 81 1008.7
20260905143003 67 34 11.0 17.0 0.00 0.04 0.00 81 1008.6
20260905142003 67 39 9.0 18.0 0.00 0.04 0.00 81 1008.5
20260905141003 66 30 11.0 19.0 0.00 0.04 0.00 82 1008.4
20260905140003 66 30 13.0 18.0 0.00 0.04 0.00 83 1008.5
20260905135045 65 29 9.0 17.0 0.00 0.04 0.00 83 1008.4
20260905134024 65 24 11.0 19.0 0.00 0.04 0.00 83 1008.2
20260905133003 65 23 13.0 18.0 0.00 0.04 0.00 85 1008.1
20260905132003 64 12 10.0 19.0 0.00 0.04 0.00 87 1008.1
20260905131003 65 27 10.0 19.0 0.00 0.04 0.00 86 1008.0
20260905130024 65 20 11.0 17.0 0.00 0.04 0.00 86 1008.0
20260905125002 65 20 10.0 16.0 0.00 0.04 0.00 86 1008.0
20260905124003 64 15 5.0 17.0 0.00 0.04 0.00 87 1008.0
20260905122024 64 7 7.0 19.0 0.00 0.04 0.00 88 1007.7
20260905121003 64 12 8.0 16.0 0.00 0.04 0.00 88 1007.7
20260905120003 64 1 8.0 19.0 0.00 0.04 0.00 88 1007.6
20260905115003 64 5 8.0 15.0 0.00 0.04 0.00 88 1007.6
20260905114023 63 342 7.0 17.0 0.00 0.04 0.00 88 1007.5
20260905113003 63 356 8.0 18.0 0.00 0.04 0.00 88 1007.3
20260905112003 63 344 8.0 19.0 0.00 0.04 0.00 89 1007.2
20260905111002 62 0 9.0 18.0 0.00 0.04 0.00 89 1007.1
20260905110003 62 344 6.0 17.0 0.00 0.04 0.00 89 1007.2
20260905105003 62 351 9.0 15.0 0.00 0.04 0.00 89 1007.0
20260905104003 61 357 9.0 14.0 0.00 0.04 0.00 90 1006.9
20260905103003 61 354 8.0 16.0 0.00 0.04 0.00 90 1006.7
20260905102002 61 343 7.0 17.0 0.00 0.04 0.00 89 1006.7
20260905101003 61 335 8.0 16.0 0.00 0.04 0.00 89 1006.6
20260905100024 62 333 7.0 14.0 0.00 0.04 0.00 89 1006.5
20260905095024 62 330 7.0 16.0 0.00 0.04 0.00 89 1006.5
20260905094003 62 334 8.0 14.0 0.00 0.04 0.00 89 1006.4
20260905093003 62 325 8.0 15.0 0.00 0.04 0.00 89 1006.3
20260905092003 62 330 7.0 16.0 0.00 0.04 0.00 89 1006.3
20260905091024 62 333 9.0 17.0 0.00 0.04 0.00 89 1006.3
20260905090024 62 322 7.0 14.0 0.00 0.04 0.00 89 1006.4
20260905085002 62 330 8.0 15.0 0.00 0.04 0.00 89 1006.4
20260905084003 62 337 7.0 14.0 0.00 0.04 0.00 89 1006.4
20260905083024 62 339 7.0 12.0 0.00 0.04 0.00 89 1006.4
20260905082003 63 341 8.0 13.0 0.00 0.04 0.00 88 1006.2
20260905081003 63 334 7.0 15.0 0.00 0.04 0.00 88 1006.1
20260905080003 63 330 8.0 15.0 0.00 0.04 0.00 88 1006.1
20260905075003 63 337 8.0 13.0 0.00 0.04 0.00 88 1006.1
20260905074003 63 338 6.0 13.0 0.00 0.04 0.00 88 1006.0
20260905073024 63 331 7.0 16.0 0.00 0.04 0.00 88 1006.0
20260905072023 63 321 8.0 13.0 0.00 0.04 0.00 88 1006.0
20260905071003 63 338 7.0 14.0 0.00 0.04 0.00 88 1006.0
20260905070003 64 336 8.0 13.0 0.00 0.04 0.00 88 1006.0
20260905065002 64 344 8.0 14.0 0.00 0.04 0.00 88 1006.0
20260905064003 64 328 6.0 12.0 0.00 0.04 0.00 87 1006.0
20260905063023 64 331 6.0 12.0 0.00 0.04 0.00 87 1006.1
20260905062003 64 326 6.0 13.0 0.00 0.04 0.00 87 1006.0
20260905061002 65 330 7.0 16.0 0.00 0.04 0.00 86 1005.9
20260905060003 65 331 10.0 17.0 0.00 0.04 0.00 86 1005.9
20260905055002 65 340 7.0 15.0 0.00 0.04 0.00 86 1006.0
20260905054003 65 341 6.0 14.0 0.00 0.04 0.00 86 1006.1
20260905053003 65 336 8.0 16.0 0.00 0.04 0.00 86 1006.0
20260905052002 65 338 7.0 14.0 0.00 0.04 0.00 86 1006.1
20260905051003 65 337 6.0 12.0 0.00 0.04 0.00 87 1006.1
20260905050003 65 337 7.0 10.0 0.00 0.04 0.00 87 1006.2
20260905045003 65 344 4.0 8.0 0.00 0.04 0.00 86 1006.2
20260905044003 65 333 6.0 11.0 0.00 0.04 0.00 86 1006.3
20260905043002 65 332 6.0 10.0 0.00 0.04 0.00 86 1006.4
20260905042003 65 327 7.0 12.0 0.00 0.04 0.00 86 1006.3
20260905041044 65 329 7.0 11.0 0.00 0.04 0.00 86 1006.2
20260905040003 66 319 7.0 12.0 0.00 0.04 0.04 86 1006.3
20260905035024 66 327 6.0 11.0 0.00 0.04 0.04 86 1006.2
20260905034003 66 318 7.0 11.0 0.00 0.04 0.04 86 1006.2
20260905033024 66 305 7.0 11.0 0.00 0.04 0.04 86 1006.3
20260905032002 66 306 6.0 9.0 0.00 0.04 0.04 86 1006.2
20260905031003 67 319 5.0 7.0 0.00 0.04 0.04 85 1006.2
20260905030003 67 330 4.0 7.0 0.00 0.04 0.04 84 1006.1
20260905025024 67 324 5.0 9.0 0.00 0.04 0.04 84 1006.1
20260905024003 68 334 5.0 9.0 0.00 0.04 0.04 84 1006.2